�N����,����,�~����,�C��,���x,�C��,����,���ϕ���,�ő�u�ԕ���,�ő厞����,���˗�,�I�_���x,�n�����x,�ő啗���N��,DTYPE
"20/02/14","00:10",0.0,8.4,90.5,1014.9,288.2,1.2,1.8,290.3,0.00,7.0,10.3,"00:00:02",1
"20/02/14","00:20",0.0,8.2,90.8,1014.9,276.3,1.3,1.7,271.3,0.00,6.8,10.2,"00:10:16",1
"20/02/14","00:30",0.0,8.1,91.0,1015.2,295.5,1.1,1.4,292.3,0.00,6.8,9.9,"00:20:24",1
"20/02/14","00:40",0.0,7.9,91.3,1015.2,276.8,1.3,1.9,269.0,0.00,6.6,9.9,"00:36:40",1
"20/02/14","00:50",0.0,8.0,91.7,1014.9,280.6,1.7,2.2,314.5,0.00,6.8,9.9,"00:47:12",1
"20/02/14","01:00",0.0,8.2,92.0,1014.5,312.2,2.2,2.9,307.5,0.00,7.0,9.8,"00:56:56",1
"20/02/14","01:10",0.0,8.4,92.0,1014.9,305.5,1.6,4.0,323.2,0.00,7.2,9.8,"01:02:24",1
"20/02/14","01:20",0.0,7.8,92.4,1014.5,273.7,1.0,2.7,308.6,0.00,6.7,9.8,"01:19:36",1
"20/02/14","01:30",0.0,8.2,92.8,1014.5,302.0,2.3,4.4,311.8,0.00,7.1,9.6,"01:26:08",1
"20/02/14","01:40",0.0,8.2,92.8,1014.7,335.2,1.8,4.5,312.9,0.00,7.1,9.6,"01:30:16",1
"20/02/14","01:50",0.0,7.8,93.0,1014.7,294.1,1.5,2.2,320.3,0.00,6.8,9.7,"01:40:48",1
"20/02/14","02:00",0.0,7.5,93.3,1014.9,290.6,1.3,1.9,318.6,0.00,6.5,9.3,"01:50:48",1
"20/02/14","02:10",0.0,7.7,93.5,1014.9,300.4,2.0,3.1,299.7,0.00,6.8,9.3,"02:03:04",1
"20/02/14","02:20",0.0,7.8,93.7,1014.5,316.1,1.5,2.5,346.2,0.00,6.9,9.5,"02:19:44",1
"20/02/14","02:30",0.0,8.1,93.8,1014.9,319.7,2.7,3.9,329.4,0.00,7.2,9.3,"02:22:40",1
"20/02/14","02:40",0.0,8.2,93.9,1014.7,299.1,2.6,4.3,318.7,0.00,7.3,9.1,"02:32:40",1
"20/02/14","02:50",0.0,8.2,94.0,1014.0,301.7,2.1,2.8,327.9,0.00,7.3,9.1,"02:44:40",1
"20/02/14","03:00",0.0,8.0,94.2,1014.5,295.9,1.8,2.5,314.0,0.00,7.2,9.2,"02:58:56",1
"20/02/14","03:10",0.0,7.6,94.2,1014.5,318.6,1.7,2.8,305.3,0.00,6.8,9.4,"03:07:52",1
"20/02/14","03:20",0.0,7.1,94.5,1014.7,311.6,1.7,2.4,324.4,0.00,6.3,9.2,"03:12:00",1
"20/02/14","03:30",0.0,7.6,94.8,1014.9,307.6,2.5,4.8,318.3,0.00,6.9,9.0,"03:28:00",1
"20/02/14","03:40",0.0,7.8,94.6,1014.2,302.9,2.3,4.7,321.8,0.00,7.0,9.1,"03:32:08",1
"20/02/14","03:50",0.0,7.7,94.8,1014.7,284.6,1.8,2.5,300.3,0.00,7.0,9.0,"03:44:00",1
"20/02/14","04:00",0.0,7.8,95.0,1014.7,296.3,2.7,5.1,312.2,0.00,7.1,9.1,"03:59:46",1
"20/02/14","04:10",0.0,8.5,94.8,1014.7,318.4,3.9,6.0,333.3,0.00,7.8,9.2,"04:07:52",1
"20/02/14","04:20",0.0,8.3,94.7,1014.5,316.2,2.5,4.0,329.8,0.00,7.5,9.0,"04:14:00",1
"20/02/14","04:30",0.0,8.1,94.8,1014.7,324.0,2.6,4.5,328.0,0.00,7.4,8.9,"04:29:36",1
"20/02/14","04:40",0.0,8.2,94.8,1014.9,312.7,3.0,4.4,330.0,0.00,7.5,9.0,"04:30:40",1
"20/02/14","04:50",0.0,8.3,94.8,1014.7,317.3,3.6,5.6,317.1,0.00,7.6,8.9,"04:47:52",1
"20/02/14","05:00",0.0,8.0,94.8,1014.7,288.6,2.6,3.9,315.9,0.00,7.3,9.0,"04:50:32",1
"20/02/14","05:10",0.0,7.9,94.9,1014.9,287.4,2.3,3.6,291.3,0.00,7.2,8.9,"05:09:36",1
"20/02/14","05:20",0.0,8.0,95.0,1014.7,309.2,2.7,4.7,325.2,0.00,7.3,9.1,"05:19:36",1
"20/02/14","05:30",0.0,7.7,94.9,1014.9,336.4,1.7,3.5,340.7,0.00,7.0,9.1,"05:20:32",1
"20/02/14","05:40",0.0,7.3,95.0,1014.7,292.9,1.3,1.9,314.1,0.00,6.6,9.0,"05:31:52",1
"20/02/14","05:50",0.0,7.1,95.1,1014.5,296.9,1.5,1.8,320.8,0.00,6.4,9.1,"05:41:36",1
"20/02/14","06:00",0.0,7.3,95.2,1014.5,286.4,1.7,2.6,294.0,0.00,6.6,8.7,"05:54:48",1
"20/02/14","06:10",0.0,7.5,95.2,1014.5,312.7,2.2,3.1,318.4,0.00,6.8,9.0,"06:00:02",1
"20/02/14","06:20",0.0,7.5,95.2,1014.5,304.0,2.5,3.9,333.6,0.00,6.8,9.0,"06:14:16",1
"20/02/14","06:30",0.0,7.3,95.3,1014.7,302.5,2.2,3.5,334.4,0.00,6.6,8.9,"06:25:28",1
"20/02/14","06:40",0.0,7.3,95.4,1014.7,294.6,2.1,3.2,312.9,0.00,6.7,8.8,"06:32:56",1
"20/02/14","06:50",0.0,7.4,95.4,1014.7,295.5,2.3,4.0,326.9,0.00,6.8,8.8,"06:45:36",1
"20/02/14","07:00",0.0,7.5,95.5,1014.7,285.6,2.3,3.3,298.4,0.00,6.9,8.7,"06:57:04",1
"20/02/14","07:10",0.0,7.6,95.5,1014.7,296.0,2.8,4.7,331.0,0.00,7.0,8.9,"07:08:32",1
"20/02/14","07:20",0.0,7.7,95.5,1014.7,318.5,3.0,5.1,320.8,0.00,7.1,8.8,"07:12:56",1
"20/02/14","07:30",0.0,7.6,95.5,1014.7,308.5,1.5,3.2,316.6,0.00,7.0,8.9,"07:20:56",1
"20/02/14","07:40",0.0,7.1,95.6,1014.7,319.2,2.3,2.9,317.2,0.00,6.5,8.5,"07:33:44",1
"20/02/14","07:50",0.0,7.0,95.8,1014.7,286.3,1.2,1.6,299.2,0.00,6.4,8.7,"07:40:08",1
"20/02/14","08:00",0.0,7.1,95.9,1015.2,304.7,1.7,2.2,321.0,0.00,6.5,8.7,"07:58:24",1
"20/02/14","08:10",0.0,7.2,95.9,1015.2,304.2,1.5,2.1,312.5,0.00,6.6,8.4,"08:02:48",1
"20/02/14","08:20",0.0,7.4,95.9,1014.9,282.9,1.5,2.6,300.7,0.00,6.8,8.6,"08:18:32",1
"20/02/14","08:30",0.0,7.6,95.9,1014.9,296.4,1.6,2.6,291.8,0.01,7.0,8.6,"08:20:48",1
"20/02/14","08:40",0.0,7.9,95.9,1015.2,308.7,1.6,2.0,308.9,0.02,7.3,8.6,"08:30:32",1
"20/02/14","08:50",0.0,8.1,95.9,1015.2,293.4,1.6,3.1,319.6,0.03,7.5,8.6,"08:49:44",1
"20/02/14","09:00",0.0,8.4,95.9,1015.9,312.9,2.5,2.9,314.2,0.04,7.8,8.8,"08:58:08",1
"20/02/14","09:10",0.0,8.7,95.8,1015.9,296.1,2.0,2.5,304.2,0.06,8.1,8.7,"09:08:40",1
"20/02/14","09:20",0.0,9.0,95.7,1015.6,289.7,2.2,3.4,316.0,0.09,8.4,8.7,"09:18:00",1
"20/02/14","09:30",0.0,9.4,95.6,1015.4,289.9,2.1,2.7,297.1,0.08,8.8,8.8,"09:24:24",1
"20/02/14","09:40",0.0,9.6,95.4,1015.6,284.6,1.8,2.4,292.6,0.08,8.9,8.9,"09:36:00",1
"20/02/14","09:50",0.0,9.9,95.3,1015.6,305.8,2.1,2.8,326.1,0.09,9.2,8.9,"09:46:00",1
"20/02/14","10:00",0.0,10.3,95.0,1015.4,303.4,0.8,2.4,319.4,0.11,9.6,9.2,"09:50:24",1
"20/02/14","10:10",0.0,10.3,94.7,1015.6,127.4,0.2,0.8,124.4,0.11,9.5,9.2,"10:01:20",1
"20/02/14","10:20",0.0,10.8,94.6,1015.4,278.9,0.5,1.2,308.9,0.12,10.0,9.2,"10:18:00",1
"20/02/14","10:30",0.0,11.1,94.3,1015.9,277.7,0.7,1.1,312.5,0.13,10.3,9.5,"10:21:04",1
"20/02/14","10:40",0.0,11.4,93.9,1015.9,306.8,0.8,1.7,308.3,0.14,10.5,9.7,"10:36:56",1
"20/02/14","10:50",0.0,11.8,93.5,1015.9,295.8,1.2,1.9,247.0,0.15,10.8,9.6,"10:48:48",1
"20/02/14","11:00",0.0,11.8,93.0,1015.9,283.0,1.5,2.5,309.6,0.13,10.7,9.7,"10:55:36",1
"20/02/14","11:10",0.0,12.0,92.4,1016.4,298.9,1.6,2.2,308.3,0.12,10.8,10.0,"11:01:20",1
"20/02/14","11:20",0.0,12.2,91.8,1015.9,281.3,1.6,2.9,315.6,0.13,10.9,9.7,"11:17:52",1
"20/02/14","11:30",0.0,12.6,91.3,1015.4,299.9,1.3,2.0,307.1,0.15,11.3,10.0,"11:21:36",1
"20/02/14","11:40",0.0,12.8,89.9,1015.4,284.3,1.6,2.6,310.5,0.16,11.2,10.2,"11:36:32",1
"20/02/14","11:50",0.0,13.2,88.7,1014.9,264.8,1.2,1.7,247.9,0.14,11.4,10.2,"11:49:44",1
"20/02/14","12:00",0.0,13.1,87.3,1014.9,258.9,1.5,2.0,245.7,0.11,11.1,10.2,"11:51:44",1
"20/02/14","12:10",0.0,13.0,85.6,1014.7,259.1,1.6,2.6,239.3,0.10,10.7,10.2,"12:01:36",1
"20/02/14","12:20",0.0,13.4,84.7,1014.5,267.6,1.3,2.0,242.1,0.12,10.9,10.4,"12:10:32",1
"20/02/14","12:30",0.0,13.5,82.7,1014.5,257.2,1.1,2.0,241.5,0.12,10.7,10.3,"12:28:40",1
"20/02/14","12:40",0.0,13.7,80.8,1014.5,272.5,0.6,1.2,269.7,0.08,10.5,10.7,"12:34:48",1
"20/02/14","12:50",0.0,13.6,79.6,1014.9,266.6,0.8,1.7,301.2,0.04,10.2,10.5,"12:42:00",1
"20/02/14","13:00",0.0,13.6,79.0,1014.7,272.9,1.0,1.6,294.4,0.03,10.1,10.7,"12:50:56",1
"20/02/14","13:10",0.0,13.4,78.7,1014.5,294.6,0.7,1.7,307.3,0.03,9.8,10.7,"13:08:24",1
"20/02/14","13:20",0.0,13.5,78.6,1014.0,312.6,1.0,1.6,326.9,0.02,9.9,10.8,"13:17:04",1
"20/02/14","13:30",0.0,13.4,78.9,1013.8,307.4,0.8,1.8,318.2,0.02,9.9,10.6,"13:22:32",1
"20/02/14","13:40",0.0,13.3,79.3,1013.5,283.6,1.1,1.4,316.3,0.02,9.8,10.8,"13:33:44",1
"20/02/14","13:50",0.0,13.2,80.1,1013.5,236.8,1.1,1.8,204.8,0.05,9.9,10.6,"13:46:08",1
"20/02/14","14:00",0.0,13.3,80.4,1013.5,300.3,1.6,3.3,334.8,0.08,10.0,10.7,"13:57:36",1
"20/02/14","14:10",0.0,13.3,80.0,1013.0,249.6,0.7,1.4,269.3,0.03,10.0,10.7,"14:00:08",1
"20/02/14","14:20",0.0,13.3,79.7,1013.3,258.0,0.8,2.0,210.6,0.05,9.9,10.6,"14:11:36",1
"20/02/14","14:30",0.0,13.5,79.5,1013.3,236.6,0.8,2.2,198.7,0.09,10.1,10.8,"14:24:00",1
"20/02/14","14:40",0.0,13.8,78.9,1013.8,258.0,0.7,1.4,317.9,0.10,10.2,10.8,"14:31:44",1
"20/02/14","14:50",0.0,14.0,77.9,1013.5,104.4,0.6,1.6,108.5,0.17,10.2,10.9,"14:45:52",1
"20/02/14","15:00",0.0,14.1,76.6,1013.0,110.2,0.6,1.2,125.8,0.13,10.1,11.2,"14:56:08",1
"20/02/14","15:10",0.0,14.1,76.2,1013.3,202.9,0.6,1.4,104.2,0.09,10.0,10.9,"15:04:00",1
"20/02/14","15:20",0.0,14.3,76.0,1013.0,288.2,0.6,1.3,309.0,0.11,10.2,11.0,"15:15:28",1
"20/02/14","15:30",0.0,14.5,75.5,1013.0,249.1,0.6,1.2,118.0,0.11,10.3,11.2,"15:23:20",1
"20/02/14","15:40",0.0,14.5,75.2,1013.3,261.2,1.1,1.8,267.5,0.12,10.2,11.1,"15:33:04",1
"20/02/14","15:50",0.0,14.3,75.3,1013.3,238.5,1.3,2.5,241.4,0.11,10.0,11.2,"15:40:24",1
"20/02/14","16:00",0.0,14.3,75.4,1013.5,228.5,0.8,1.7,197.6,0.08,10.1,11.2,"15:59:12",1
"20/02/14","16:10",0.0,14.2,75.4,1013.5,235.7,0.8,1.6,224.2,0.08,10.0,11.5,"16:01:20",1
"20/02/14","16:20",0.0,14.2,75.1,1013.5,251.2,0.7,1.6,215.2,0.07,9.9,11.3,"16:19:52",1
"20/02/14","16:30",0.0,14.1,75.4,1013.5,221.9,1.0,1.7,214.7,0.04,9.9,11.4,"16:20:08",1
"20/02/14","16:40",0.0,14.0,75.6,1013.5,231.5,0.7,1.2,235.9,0.03,9.8,11.4,"16:30:08",1
"20/02/14","16:50",0.0,14.0,75.7,1013.5,198.8,0.5,1.1,158.9,0.05,9.8,11.4,"16:48:08",1
"20/02/14","17:00",0.0,14.0,75.6,1014.5,235.6,0.7,1.2,256.6,0.03,9.8,11.6,"16:53:04",1
"20/02/14","17:10",0.0,14.0,75.7,1014.0,226.3,0.5,1.4,238.6,0.02,9.8,11.4,"17:03:04",1
"20/02/14","17:20",0.0,13.7,76.0,1014.2,207.4,0.8,1.4,212.6,0.01,9.6,11.3,"17:12:16",1
"20/02/14","17:30",0.0,13.6,76.3,1013.8,238.2,0.8,1.6,238.3,0.00,9.6,11.1,"17:24:56",1
"20/02/14","17:40",0.0,13.6,77.1,1013.8,229.8,1.0,1.7,249.9,0.00,9.7,11.2,"17:31:36",1
"20/02/14","17:50",0.0,13.4,77.4,1014.0,235.3,0.7,1.4,235.9,0.00,9.6,11.4,"17:40:16",1
"20/02/14","18:00",0.0,13.4,77.6,1014.5,316.3,0.7,1.2,328.7,0.00,9.6,11.2,"17:54:16",1
"20/02/14","18:10",0.0,13.3,78.1,1014.5,330.6,1.1,1.2,329.9,0.00,9.6,11.3,"18:02:08",1
"20/02/14","18:20",0.0,12.9,79.1,1014.7,335.0,0.8,1.6,335.0,0.00,9.4,11.2,"18:11:04",1
"20/02/14","18:30",0.0,12.3,80.0,1014.9,326.8,1.0,1.4,320.2,0.00,9.0,11.2,"18:27:38",1
"20/02/14","18:40",0.0,11.7,81.0,1014.9,315.6,1.3,1.9,318.1,0.00,8.6,11.0,"18:36:10",1
"20/02/14","18:50",0.0,11.3,82.5,1014.9,307.3,1.3,1.8,327.1,0.00,8.5,11.0,"18:44:00",1
"20/02/14","19:00",0.0,10.9,83.7,1014.5,296.6,1.3,2.1,326.1,0.00,8.3,11.1,"18:52:32",1
"20/02/14","19:10",0.0,10.7,84.9,1014.7,278.8,1.5,2.0,276.9,0.00,8.3,11.0,"19:04:24",1
"20/02/14","19:20",0.0,10.4,86.0,1014.9,286.5,1.6,1.9,312.0,0.00,8.2,11.0,"19:11:44",1
"20/02/14","19:30",0.0,10.2,87.0,1015.4,298.2,1.7,2.5,315.0,0.00,8.2,10.8,"19:25:20",1
"20/02/14","19:40",0.0,10.2,88.1,1015.6,317.9,2.2,3.3,312.7,0.00,8.4,10.5,"19:37:36",1
"20/02/14","19:50",0.0,10.1,88.7,1015.4,312.1,2.3,3.7,316.9,0.00,8.4,10.4,"19:41:44",1
"20/02/14","20:00",0.0,9.9,89.5,1015.4,317.9,2.1,3.1,336.5,0.00,8.3,10.5,"19:58:00",1
"20/02/14","20:10",0.0,9.9,89.9,1015.9,328.8,3.0,4.5,342.2,0.00,8.4,10.3,"20:02:00",1
"20/02/14","20:20",0.0,9.8,90.3,1016.1,314.1,2.6,3.5,324.6,0.00,8.3,10.2,"20:14:32",1
"20/02/14","20:30",0.0,9.5,90.7,1015.9,314.0,2.2,2.8,322.8,0.00,8.1,10.2,"20:25:12",1
"20/02/14","20:40",0.0,9.4,91.1,1016.4,311.5,2.2,4.0,337.6,0.00,8.1,10.2,"20:35:44",1
"20/02/14","20:50",0.0,9.4,91.4,1016.1,325.8,2.6,3.7,327.2,0.00,8.1,10.1,"20:46:56",1
"20/02/14","21:00",0.0,9.0,91.6,1016.4,341.4,2.1,3.9,336.5,0.00,7.7,10.2,"20:52:16",1
"20/02/14","21:10",0.0,9.1,91.9,1015.9,331.2,2.6,3.7,336.5,0.00,7.9,10.2,"21:04:48",1
"20/02/14","21:20",0.0,8.7,92.1,1016.6,336.6,1.5,3.1,325.3,0.00,7.5,9.8,"21:10:16",1
"20/02/14","21:30",0.0,8.2,92.3,1016.6,284.1,1.0,1.8,328.2,0.00,7.1,9.9,"21:20:16",1
"20/02/14","21:40",0.0,8.0,92.7,1016.8,309.9,1.1,2.5,310.1,0.00,6.9,9.7,"21:32:24",1
"20/02/14","21:50",0.0,7.6,92.9,1017.3,283.3,1.1,1.9,315.0,0.00,6.6,9.8,"21:41:20",1
"20/02/14","22:00",0.0,7.4,93.0,1017.1,297.4,1.1,1.7,314.7,0.00,6.4,9.8,"21:52:40",1
"20/02/14","22:10",0.0,7.2,93.2,1017.1,309.6,1.3,1.9,316.8,0.00,6.2,9.7,"22:07:36",1
"20/02/14","22:20",0.0,7.6,93.5,1017.3,322.6,1.8,3.2,324.1,0.00,6.7,9.6,"22:14:24",1
"20/02/14","22:30",0.0,8.4,93.6,1017.1,313.7,3.1,4.9,327.8,0.00,7.5,9.4,"22:25:44",1
"20/02/14","22:40",0.0,8.4,93.7,1017.1,318.9,3.6,5.0,338.6,0.00,7.5,9.1,"22:32:40",1
"20/02/14","22:50",0.0,8.5,93.8,1017.3,325.5,2.8,5.5,340.4,0.00,7.6,9.2,"22:40:56",1
"20/02/14","23:00",0.0,8.3,93.9,1017.3,326.3,1.5,2.7,306.4,0.00,7.4,9.4,"22:59:20",1
"20/02/14","23:10",0.0,8.3,94.2,1017.3,322.1,2.6,5.0,322.9,0.00,7.5,9.4,"23:06:36",1
"20/02/14","23:20",0.0,8.2,94.3,1017.3,329.7,2.5,4.4,333.6,0.00,7.4,9.3,"23:10:16",1
"20/02/14","23:30",0.0,8.0,94.5,1017.1,319.8,1.7,2.9,309.9,0.00,7.2,9.2,"23:28:48",1
"20/02/14","23:40",0.0,7.8,94.6,1017.1,327.6,2.2,3.5,335.7,0.00,7.0,9.0,"23:33:28",1
"20/02/14","23:50",0.0,7.8,94.8,1017.5,333.8,1.8,3.2,344.6,0.00,7.1,9.0,"23:41:36",1
"20/02/14","24:00",0.0,7.8,95.0,1017.3,323.3,2.5,3.5,338.3,0.00,7.1,9.1,"23:53:12",1
